Rockland, ME

12:36 PM EST on November 21, 2017 (GMT -0500)
Knox County Regional

Weather History for KRKD - March, 2012

Change the Weather History Date:

Friday, March 30, 2012

  Actual Average Record
Temperature  
Mean Temperature 34 °F -  
Max Temperature 41 °F 41 °F 55 °F (1997)
Min Temperature 28 °F 28 °F 23 °F (2008)
Degree Days  
Heating Degree Days 30    
Moisture  
Dew Point 21 °F    
Average Humidity 62    
Maximum Humidity 93    
Minimum Humidity 33    
Precipitation  
Precipitation 0.00 in - - ()
Sea Level Pressure  
Sea Level Pressure 29.87 in    
Wind  
Wind Speed 9 mph (WNW)    
Max Wind Speed 21 mph    
Max Gust Speed 30 mph    
Visibility 10 miles    
Events      
Averages and records for this station are not official NWS values.
T = Trace of Precipitation, MM = Missing Value Source: NWS Daily Summary

Daily Weather History Graph

Daily Weather History Graph

Search for Another Location

Airport or City:

Trip Planner

Search our weather history database for the weather conditions in past years. The results will help you decide how hot, cold, wet, or windy it might be!

Date:

Astronomy

Mar. 30, 2012 Rise Set
Actual Time 6:20 AM EDT 7:01 PM EDT
Civil Twilight 5:51 AM EDT 7:30 PM EDT
Nautical Twilight 5:16 AM EDT 8:05 PM EDT
Astronomical Twilight 4:41 AM EDT 8:41 PM EDT
Moon 11:13 AM EDT (3/30) 1:45 AM EDT (3/30)
Length of Visible Light 13h 39m
Length of Day
12h 41m
Waxing Crescent, 49% of the Moon is Illuminated
Mar 30
Waxing Crescent
Mar 30
First Quarter
Apr 6
Full
Apr 13
Last Quarter
Apr 21
New

Hourly Weather History & Observations

Time (EDT) Temp. Windchill Dew Point Humidity Pressure Visibility Wind Dir Wind Speed Gust Speed Precip Events Conditions
12:15 AM 33.8 °F 27.7 °F 28.4 °F 81% 29.82 in 10.0 mi WNW 6.9 mph - N/A   Overcast
12:55 AM 30.2 °F 24.3 °F 28.4 °F 93% 29.82 in 10.0 mi West 5.8 mph - N/A   Mostly Cloudy
1:15 AM 28.4 °F 22.2 °F 26.6 °F 93% 29.82 in 10.0 mi WNW 5.8 mph - N/A   Scattered Clouds
1:35 AM 30.2 °F - 26.6 °F 86% 29.82 in 10.0 mi Calm Calm - N/A   Partly Cloudy
1:55 AM 30.2 °F - 28.4 °F 93% 29.82 in 10.0 mi Calm Calm - N/A   Partly Cloudy
2:15 AM 30.2 °F - 26.6 °F 86% 29.81 in 10.0 mi Calm Calm - N/A   Scattered Clouds
2:35 AM 30.2 °F 22.6 °F 26.6 °F 86% 29.81 in 10.0 mi West 8.1 mph - N/A   Scattered Clouds
2:55 AM 30.2 °F 20.8 °F 26.6 °F 86% 29.81 in 10.0 mi WNW 11.5 mph - N/A   Partly Cloudy
3:15 AM 30.2 °F 20.8 °F 26.6 °F 86% 29.81 in 10.0 mi West 11.5 mph - N/A   Clear
3:35 AM 30.2 °F 21.3 °F 24.8 °F 80% 29.82 in 10.0 mi West 10.4 mph - N/A   Clear
3:55 AM 30.2 °F 21.9 °F 24.8 °F 80% 29.82 in 10.0 mi West 9.2 mph - N/A   Clear
4:15 AM 28.4 °F 20.4 °F 24.8 °F 86% 29.83 in 10.0 mi West 8.1 mph - N/A   Clear
4:35 AM 28.4 °F 19.7 °F 24.8 °F 86% 29.83 in 10.0 mi WNW 9.2 mph - N/A   Clear
4:55 AM 28.4 °F 21.2 °F 24.8 °F 86% 29.84 in 10.0 mi WNW 6.9 mph - N/A   Clear
5:15 AM 28.4 °F 20.4 °F 24.8 °F 86% 29.84 in 10.0 mi West 8.1 mph - N/A   Clear
5:35 AM 28.4 °F 20.4 °F 24.8 °F 86% 29.84 in 10.0 mi West 8.1 mph - N/A   Clear
5:55 AM 28.4 °F 21.2 °F 24.8 °F 86% 29.84 in 10.0 mi WNW 6.9 mph - N/A   Clear
6:15 AM 28.4 °F 21.2 °F 24.8 °F 86% 29.85 in 10.0 mi West 6.9 mph - N/A   Clear
6:35 AM 28.4 °F 19.7 °F 24.8 °F 86% 29.85 in 10.0 mi WNW 9.2 mph - N/A   Clear
6:55 AM 30.2 °F 20.2 °F 24.8 °F 80% 29.86 in 10.0 mi WNW 12.7 mph - N/A   Clear
7:15 AM 30.2 °F 20.8 °F 24.8 °F 80% 29.86 in 10.0 mi WNW 11.5 mph 16.1 mph N/A   Clear
7:35 AM 32.0 °F 22.1 °F 24.8 °F 75% 29.87 in 10.0 mi WNW 13.8 mph 20.7 mph N/A   Clear
7:55 AM 32.0 °F 22.5 °F 21.2 °F 64% 29.87 in 10.0 mi WNW 12.7 mph 20.7 mph N/A   Clear
8:15 AM 33.8 °F 24.8 °F 21.2 °F 60% 29.88 in 10.0 mi WNW 12.7 mph 24.2 mph N/A   Clear
8:35 AM 33.8 °F 23.2 °F 19.4 °F 56% 29.88 in 10.0 mi WNW 17.3 mph 21.9 mph N/A   Clear
8:55 AM 33.8 °F 22.5 °F 17.6 °F 52% 29.89 in 10.0 mi WNW 19.6 mph 29.9 mph N/A   Clear
9:15 AM 33.8 °F 22.8 °F 19.4 °F 56% 29.91 in 10.0 mi NW 18.4 mph 25.3 mph N/A   Clear
9:35 AM 35.6 °F 26.2 °F 17.6 °F 48% 29.91 in 10.0 mi WNW 15.0 mph 28.8 mph N/A   Clear
10:15 AM 35.6 °F 26.2 °F 17.6 °F 48% 29.90 in 10.0 mi WNW 15.0 mph 23.0 mph N/A   Clear
10:35 AM 35.6 °F 26.6 °F 17.6 °F 48% 29.91 in 10.0 mi NW 13.8 mph 24.2 mph N/A   Clear
10:55 AM 37.4 °F 27.8 °F 15.8 °F 41% 29.91 in 10.0 mi NW 17.3 mph 26.5 mph N/A   Clear
11:15 AM 37.4 °F 29.3 °F 17.6 °F 45% 29.92 in 10.0 mi NW 12.7 mph 24.2 mph N/A   Clear
11:35 AM 37.4 °F 27.8 °F 15.8 °F 41% 29.92 in 10.0 mi WNW 17.3 mph 24.2 mph N/A   Clear
11:55 AM 37.4 °F 28.9 °F 17.6 °F 45% 29.92 in 10.0 mi WNW 13.8 mph 24.2 mph N/A   Clear
12:35 PM 39.2 °F 31.6 °F 15.8 °F 39% 29.91 in 10.0 mi WNW 12.7 mph 20.7 mph N/A   Partly Cloudy
12:55 PM 39.2 °F 30.8 °F 14.0 °F 36% 29.92 in 10.0 mi NNW 15.0 mph 27.6 mph N/A   Scattered Clouds
1:15 PM 39.2 °F 29.3 °F 15.8 °F 39% 29.91 in 10.0 mi WNW 20.7 mph 27.6 mph N/A   Scattered Clouds
1:35 PM 39.2 °F 32.0 °F 15.8 °F 39% 29.91 in 10.0 mi NW 11.5 mph 23.0 mph N/A   Partly Cloudy
1:55 PM 41.0 °F 32.2 °F 17.6 °F 39% 29.91 in 10.0 mi WNW 18.4 mph 26.5 mph N/A   Mostly Cloudy
2:15 PM 41.0 °F 34.3 °F 14.0 °F 33% 29.91 in 10.0 mi NW 11.5 mph 21.9 mph N/A   Scattered Clouds
2:35 PM 39.2 °F 32.5 °F 15.8 °F 39% 29.91 in 10.0 mi NNW 10.4 mph 20.7 mph N/A   Scattered Clouds
2:55 PM 39.2 °F 32.5 °F 15.8 °F 39% 29.91 in 10.0 mi WNW 10.4 mph 19.6 mph N/A   Mostly Cloudy
3:15 PM 39.2 °F 33.0 °F 15.8 °F 39% 29.90 in 10.0 mi NNW 9.2 mph 18.4 mph N/A   Partly Cloudy
3:35 PM 39.2 °F 32.5 °F 14.0 °F 36% 29.90 in 10.0 mi NNW 10.4 mph 18.4 mph N/A   Partly Cloudy
4:15 PM 41.0 °F 34.3 °F 15.8 °F 36% 29.91 in 10.0 mi NNW 11.5 mph 19.6 mph N/A   Partly Cloudy
4:35 PM 39.2 °F 31.2 °F 12.2 °F 33% 29.91 in 10.0 mi WNW 13.8 mph 21.9 mph N/A   Partly Cloudy
4:55 PM 39.2 °F 32.5 °F 12.2 °F 33% 29.92 in 10.0 mi NW 10.4 mph 16.1 mph N/A   Mostly Cloudy
5:15 PM 39.2 °F 33.0 °F 12.2 °F 33% 29.93 in 10.0 mi NNW 9.2 mph 18.4 mph N/A   Scattered Clouds
5:35 PM 39.2 °F 31.2 °F 12.2 °F 33% 29.94 in 10.0 mi WNW 13.8 mph 17.3 mph N/A   Partly Cloudy
5:55 PM 39.2 °F 32.5 °F 12.2 °F 33% 29.95 in 10.0 mi WNW 10.4 mph 18.4 mph N/A   Partly Cloudy
6:15 PM 37.4 °F 30.8 °F 12.2 °F 36% 29.96 in 10.0 mi WNW 9.2 mph - N/A   Clear
6:35 PM 37.4 °F 30.3 °F 12.2 °F 36% 29.96 in 10.0 mi WNW 10.4 mph - N/A   Clear
6:55 PM 37.4 °F 32.8 °F 14.0 °F 38% 29.97 in 10.0 mi WNW 5.8 mph - N/A   Clear
7:15 PM 35.6 °F 30.7 °F 14.0 °F 41% 29.98 in 10.0 mi NW 5.8 mph - N/A   Clear
7:35 PM 35.6 °F 31.7 °F 14.0 °F 41% 29.98 in 10.0 mi WNW 4.6 mph - N/A   Clear
7:55 PM 35.6 °F 31.7 °F 15.8 °F 44% 29.99 in 10.0 mi NW 4.6 mph - N/A   Clear
8:15 PM 33.8 °F - 15.8 °F 48% 30.01 in 10.0 mi Calm Calm - N/A   Clear
8:55 PM 28.4 °F - 17.6 °F 64% 30.01 in 10.0 mi Calm Calm - N/A   Clear
9:15 PM 28.4 °F 22.2 °F 17.6 °F 64% 30.02 in 10.0 mi WNW 5.8 mph - N/A   Clear
9:35 PM 28.4 °F 22.2 °F 17.6 °F 64% 30.03 in 10.0 mi South 5.8 mph - N/A   Clear
9:55 PM 28.4 °F 22.2 °F 19.4 °F 69% 30.03 in 10.0 mi West 5.8 mph - N/A   Clear
10:15 PM 30.2 °F 25.4 °F 15.8 °F 55% 30.03 in 10.0 mi West 4.6 mph - N/A   Clear
10:35 PM 28.4 °F 24.6 °F 19.4 °F 69% 30.03 in 10.0 mi WNW 3.5 mph - N/A   Clear
10:55 PM 30.2 °F 25.4 °F 15.8 °F 55% 30.03 in 10.0 mi WNW 4.6 mph - N/A   Clear
11:15 PM 28.4 °F - 17.6 °F 64% 30.03 in 10.0 mi Calm Calm - N/A   Clear
11:35 PM 28.4 °F - 17.6 °F 64% 30.04 in 10.0 mi Calm Calm - N/A   Clear
11:55 PM 26.6 °F - 17.6 °F 69% 30.04 in 10.0 mi Calm Calm - N/A   Clear